Regional Weather Roundup
Issued by NWS Albany, NY

Home | Current Version | Previous Version | Text Only | Print | Product List | Glossary On
Versions: 1 2 3 4 5 6 7 8 9 10 11 12 13 14 15 16 17 18 19 20 21 22 23 24 25 26 27 28 29 30 31 32 33 34 35 36 37 38 39 40 41 42 43 44 45 46 47 48 49 50
885
ASUS41 KALY 251310
RWRALY

NEW YORK STATE HOURLY WEATHER ROUNDUP
NATIONAL WEATHER SERVICE ALBANY NY
900 AM EDT MON JUL 25 2016

NOTE: "FAIR" INDICATES FEW OR NO CLOUDS BELOW 12,000 FEET WITH NO
SIGNIFICANT WEATHER AND/OR NO OBSTRUCTIONS TO VISIBILITY.

NYZ032-033-038>043-046>054-057>066-NYZ062>081-082-084-251400-
EAST


CITY           SKY/WX    TMP DP  RH WIND       PRES   REMARKS
ALBANY         CLOUDY    76  63  64 S8        29.92S
GLENS FALLS    PTSUNNY   73  64  73 CALM      29.92S
POUGHKEEPSIE   MOSUNNY   84  68  58 S7        29.91F
NEWBURGH       MOSUNNY   81  70  69 CALM      29.95S
MONTGOMERY     MOSUNNY   82  69  64 S8        29.92F
WHITE PLAINS   LGT RAIN  78  70  76 S3        29.95S
ISLIP          CLOUDY    78  67  68 S13       29.95F
NEW YORK CITY  CLOUDY    84  71  65 SE9       29.93S
CENTRAL PARK   CLOUDY    81  70  69 CALM      29.96F
$$

NYZ005>009-017-018-044>046-055-056-251400-
CENTRAL


CITY           SKY/WX    TMP DP  RH WIND       PRES   REMARKS
FULTON         CLOUDY    74  65  73 CALM      29.90R
SYRACUSE       CLOUDY    72  65  78 CALM      29.89S
ROME           CLOUDY    73  64  73 E6        29.91F
ELMIRA         CLOUDY    76  63  64 CALM      29.93F
BINGHAMTON     MOSUNNY   76  63  64 SW7       29.97F
MONTICELLO     SUNNY     75  68  78 W7        29.99F
$$

NYZ026>034-041>043-087-251400-
NORTH


CITY           SKY/WX    TMP DP  RH WIND       PRES   REMARKS
WATERTOWN      CLOUDY    70  63  78 W3        29.86S
FORT DRUM      NOT AVBL
MASSENA        LGT RAIN  68  62  81 NE3       29.87S
SARANAC LAKE   PTSUNNY   69  58  67 CALM      29.93F
PLATTSBURGH    CLOUDY    71  62  73 VRB5      29.89S
$$

NYZ001>004-010>016-019>021-085-251400-
WEST


CITY           SKY/WX    TMP DP  RH WIND       PRES   REMARKS
NIAGARA FALLS  TSTM      73  68  84 N7        29.90S
BUFFALO        TSTM      71  68  90 S5        29.93S
DUNKIRK        CLOUDY    73  69  87 E7        29.92R
JAMESTOWN      CLOUDY    72  70  94 SW9       29.98R
WELLSVILLE     CLOUDY    75  67  76 SW9       30.01S
ROCHESTER      TSTM      72  71  97 W13       29.92R
PENN YAN       CLOUDY    76  64  66 SW10      29.92S
$$

             KEY
       WCI = WIND CHILL INDEX
       VSB = VISIBILITY
       HX  = HEAT INDEX
$$




USA.gov is the U.S. government's official web portal to all federal, state and local government web resources and services.